North Myrtle Beach, SC

10:32 PM EDT on July 29, 2016 (GMT -0400)
Grand Strand

Weather History for KCRE - December, 2011

Change the Weather History Date:

Tuesday, December 20, 2011

  Actual Average Record
Temperature  
Mean Temperature 56 °F 48 °F  
Max Temperature 68 °F 58 °F 74 °F (2013)
Min Temperature 43 °F 38 °F 19 °F (2004)
Degree Days  
Heating Degree Days 9 17  
Month to date heating degree days 261 306  
Since 1 July heating degree days 608 667  
Cooling Degree Days 0 0  
Month to date cooling degree days 0 0  
Year to date cooling degree days 2203 1899  
Growing Degree Days 6 (Base 50)    
Moisture  
Dew Point 50 °F    
Average Humidity 80    
Maximum Humidity 100    
Minimum Humidity 59    
Precipitation  
Precipitation 0.00 in 0.11 in 0.21 in (2012)
Month to date precipitation 0.13 2.37  
Year to date precipitation 32.58 50.92  
Sea Level Pressure  
Sea Level Pressure 30.22 in    
Wind  
Wind Speed 2 mph (South)    
Max Wind Speed 9 mph    
Max Gust Speed 13 mph    
Visibility 6 miles    
Events      
T = Trace of Precipitation, MM = Missing Value Source: NWS Daily Summary

Daily Weather History Graph

Daily Weather History Graph

Search for Another Location

Airport or City:

Trip Planner

Search our weather history database for the weather conditions in past years. The results will help you decide how hot, cold, wet, or windy it might be!

Date:

Astronomy

Dec. 20, 2011 Rise Set
Actual Time 7:15 AM EST 5:09 PM EST
Civil Twilight 6:47 AM EST 5:37 PM EST
Nautical Twilight 6:16 AM EST 6:08 PM EST
Astronomical Twilight 5:45 AM EST 6:39 PM EST
Moon 2:40 AM EST (12/20) 1:39 PM EST (12/20)
Length of Visible Light 10h 49m
Length of Day
9h 54m
Waning Crescent, 21% of the Moon is Illuminated
Dec 20
Waning Crescent
Dec 24
New
Jan 1
First Quarter
Jan 9
Full
Jan 16
Last Quarter

Hourly Weather History & Observations

Time (EST) Temp. Dew Point Humidity Pressure Visibility Wind Dir Wind Speed Gust Speed Precip Events Conditions
12:46 AM 44.6 °F 42.8 °F 93% 30.24 in 1.8 mi Calm Calm - N/A   Clear
12:53 AM 44.1 °F 44.1 °F 100% 30.25 in 2.0 mi Calm Calm - N/A   Clear
1:01 AM 44.6 °F 42.8 °F 93% 30.24 in 7.0 mi Calm Calm - N/A   Clear
1:53 AM 45.0 °F 44.1 °F 97% 30.24 in 5.0 mi Calm Calm - N/A   Mostly Cloudy
2:53 AM 46.0 °F 45.0 °F 96% 30.24 in 9.0 mi Calm Calm - N/A   Mostly Cloudy
3:53 AM 46.0 °F 44.1 °F 93% 30.23 in 9.0 mi Calm Calm - N/A   Partly Cloudy
4:53 AM 45.0 °F 43.0 °F 93% 30.21 in 5.0 mi Calm Calm - N/A   Clear
5:53 AM 45.0 °F 44.1 °F 97% 30.22 in 5.0 mi Calm Calm - N/A   Clear
6:53 AM 45.0 °F 44.1 °F 97% 30.24 in 10.0 mi Calm Calm - N/A   Mostly Cloudy
7:53 AM 46.9 °F 46.0 °F 97% 30.25 in 5.0 mi Calm Calm - N/A   Scattered Clouds
8:50 AM 53.6 °F 51.8 °F 94% 30.26 in 2.5 mi Calm Calm - N/A   Scattered Clouds
8:53 AM 55.0 °F 52.0 °F 89% 30.26 in 8.0 mi Calm Calm - N/A   Scattered Clouds
9:53 AM 62.1 °F 54.0 °F 75% 30.28 in 10.0 mi Calm Calm - N/A   Scattered Clouds
10:53 AM 63.0 °F 53.1 °F 70% 30.27 in 10.0 mi South 4.6 mph - N/A   Partly Cloudy
11:53 AM 66.0 °F 53.1 °F 63% 30.24 in 10.0 mi Variable 3.5 mph - N/A   Mostly Cloudy
12:53 PM 68.0 °F 53.1 °F 59% 30.21 in 10.0 mi South 6.9 mph - N/A   Clear
1:53 PM 64.0 °F 54.0 °F 70% 30.20 in 10.0 mi South 8.1 mph - N/A   Scattered Clouds
2:53 PM 63.0 °F 54.0 °F 72% 30.17 in 10.0 mi South 8.1 mph - N/A   Mostly Cloudy
4:53 PM 63.0 °F 55.0 °F 75% 30.18 in 10.0 mi South 3.5 mph - N/A   Clear
6:53 PM 62.1 °F 55.9 °F 80% 30.20 in 10.0 mi SSW 8.1 mph - N/A   Clear
7:53 PM 60.1 °F 55.0 °F 83% 30.21 in 10.0 mi WSW 3.5 mph - N/A   Clear
8:53 PM 57.0 °F 54.0 °F 89% 30.22 in 10.0 mi Calm Calm - N/A   Clear
9:53 PM 53.1 °F 53.1 °F 100% 30.21 in 9.0 mi Calm Calm - N/A   Clear
10:21 PM 53.6 °F 51.8 °F 94% 30.20 in 1.8 mi Calm Calm - N/A   Clear
10:25 PM 53.6 °F 51.8 °F 94% 30.20 in 3.0 mi Calm Calm - N/A   Partly Cloudy
10:38 PM 53.6 °F 53.6 °F 100% 30.20 in 2.5 mi Calm Calm - N/A   Mostly Cloudy
10:46 PM 53.6 °F 51.8 °F 94% 30.20 in 8.0 mi Calm Calm - N/A   Mostly Cloudy
10:53 PM 53.1 °F 52.0 °F 96% 30.20 in 5.0 mi Calm Calm - N/A   Overcast
11:19 PM 53.6 °F 53.6 °F 100% 30.20 in 1.8 mi Calm Calm - N/A   Partly Cloudy
11:30 PM 53.6 °F 51.8 °F 94% 30.19 in 0.8 mi Calm Calm - N/A   Clear
11:36 PM 51.8 °F 51.8 °F 100% 30.19 in 1.0 mi Calm Calm - N/A   Mist
11:42 PM 53.6 °F 51.8 °F 94% 30.19 in 2.0 mi Calm Calm - N/A   Partly Cloudy
11:53 PM 51.1 °F 51.1 °F 100% 30.19 in 1.0 mi Calm Calm - N/A   Mist